1998-067TQ (53305 NORAD) Tracking and Keplerian Element Data

This shows tracking and keplerian element data for the satellite.

Feedback or suggestion? Click here.




ElementValue
Catalog53305
Name1998-067TQ
Epoch Orbit1048
Epoch Day270.09320194
Epoch Year2022
RAAN190.7391
Inclination51.6408
Eccentricity0.0001931
Argument of Perigee226.1822
Mean Anonmoly133.9009
Mean Motion15.54730103
Decay Rate0.00063103
L11 53305U 98067TQ 22270.09320194 .00063103 00000+0 93222-3 0 9990
L22 53305 51.6408 190.7391 0001931 226.1822 133.9009 15.54730103 10486

Live tracking and technical data element details for 1998-067TQ (NORAD 53305). 1998-067TQ can be tracked NOW for your location showing map with azimuth and elevation plus other details from your city location.

Track the satellite on the map from your city or location and see movement details for azimuth, elevation, latitude, longitude, range, height, and movement on the map or in text.







IsCatalogInMostPopularTable: catalog: 53305, numindb: 12
Update: records affected: 1



GetName: 53305 1998-067TQ

Hit Count: updated at: Wed, 28 Sep 2022 23:17:09 GMT